{"data":{"norad_id":63670,"epoch":"2026-05-25T01:50:15.763776Z","epoch_age_seconds":65665,"freshness":"FRESH","line1":"1 63670U 25085G   26145.07657134  .00144781  00000+0  11101-2 0  9993","line2":"2 63670  43.0014 178.1480 0001411 242.5882 117.4842 15.70886722 62251","mean_motion":15.70886722,"eccentricity":0.0001411,"inclination_deg":43.0014,"raan_deg":178.148,"arg_perigee_deg":242.5882,"mean_anomaly_deg":117.4842,"bstar":0.0011101,"rev_number":6225,"period_min":91.667971969783,"perigee_km":355.41128691642,"apogee_km":357.31176240008,"semimajor_km":6734.4985246582,"source":"CELESTRAK","updated_at":"2026-05-25T13:38:20.091311Z"}}